Location: Brompton
(51.4000°N, 0.5333°E)
Time: 16:56:20
(UTC+00:00)

Cosmos 44 - Pass Details

Date: 11 May 2021
Orbit: 571 x 791 km, 65.1° (Epoch: 15 June)

Event Time Altitude Azimuth Distance (km) Brightness Sun altitude
Rises 21:40:33 0° 318° (NW) 3,298 8.6 -14.6°
Reaches altitude 10° 21:43:01 10° 321° (NW) 2,365 7.4 -14.8°
Maximum altitude 21:48:29 69° 45° (NE) 837 3.7 -15.2°
Enters shadow 21:51:59 22° 125° (SE) 1,641 4.7 -15.5°
